,,PA_Meas_PMT16A,,PR_Meas_QMR101_102,,RH_Meas_QMH101,,SR_Meas_QMS101,,TA_Meas_QMH101,,GenWind,,GenWind,
time,status,PA,status,PR,status,RH,status,SR,status,TA,status,DirAvg,status,SpdAvg,
2010-12-19, 00:00:04,VALID,917.326,VALID,0,VALID,97.0766,VALID,0,VALID,19.0398,VALID,120,VALID,0.596875,
2010-12-19, 00:01:04,VALID,917.323,VALID,0,VALID,97.069,VALID,0,VALID,19.0593,VALID,120,VALID,0.439063,
2010-12-19, 00:02:04,VALID,917.328,VALID,0,VALID,97.0842,VALID,0,VALID,19.0593,VALID,120,VALID,0.681641,
2010-12-19, 00:03:04,VALID,917.318,VALID,0,VALID,97.0994,VALID,0.107441,VALID,19.0593,VALID,120,VALID,0.4125,
2010-12-19, 00:04:04,VALID,917.296,VALID,0,VALID,97.0994,VALID,0,VALID,19.0398,VALID,119,VALID,0.558203,
2010-12-19, 00:05:04,VALID,917.292,VALID,0,VALID,97.1071,VALID,0,VALID,19.0593,VALID,120,VALID,0.76875,
2010-12-19, 00:06:04,VALID,917.285,VALID,0,VALID,97.0994,VALID,0,VALID,19.0593,VALID,120,VALID,0.967578,
2010-12-19, 00:07:04,VALID,917.262,VALID,0,VALID,97.1071,VALID,0,VALID,19.0398,VALID,120,VALID,0.977734,
2010-12-19, 00:08:04,VALID,917.279,VALID,0,VALID,97.1071,VALID,0,VALID,19.0593,VALID,120,VALID,0.744531,
2010-12-19, 00:09:04,VALID,917.255,VALID,0,VALID,97.1071,VALID,0,VALID,19.0384,VALID,120,VALID,0.919922,
2010-12-19, 00:10:04,VALID,917.225,VALID,0,VALID,97.1376,VALID,0,VALID,19.0593,VALID,120,VALID,0.561719,
2010-12-19, 00:11:04,VALID,917.225,VALID,0,VALID,97.0918,VALID,0,VALID,19.0398,VALID,120,VALID,0.632031,
2010-12-19, 00:12:04,VALID,917.22,VALID,0,VALID,97.0613,VALID,0,VALID,19.0189,VALID,120,VALID,0.917188,
2010-12-19, 00:13:04,VALID,917.189,VALID,0,VALID,97.0537,VALID,0,VALID,19.0203,VALID,120,VALID,0.579297,
2010-12-19, 00:14:04,VALID,917.192,VALID,0,VALID,97.0461,VALID,0,VALID,18.9994,VALID,120,VALID,0.403125,
2010-12-19, 00:15:04,VALID,917.174,VALID,0,VALID,97.008,VALID,0,VALID,18.9814,VALID,120,VALID,1.22383,
2010-12-19, 00:16:04,VALID,917.153,VALID,0,VALID,97.0308,VALID,0,VALID,19.0008,VALID,120,VALID,0.473828,
2010-12-19, 00:17:04,VALID,917.138,VALID,0,VALID,96.9698,VALID,0,VALID,18.9604,VALID,120,VALID,0.776172,
2010-12-19, 00:18:04,VALID,917.164,VALID,0,VALID,96.9698,VALID,0,VALID,18.9814,VALID,120,VALID,0.831641,
2010-12-19, 00:19:04,VALID,917.148,VALID,0,VALID,96.9546,VALID,0,VALID,18.9814,VALID,119,VALID,0.528906,
2010-12-19, 00:20:04,VALID,917.146,VALID,0,VALID,96.9165,VALID,0,VALID,18.9633,VALID,120,VALID,0.855469,
2010-12-19, 00:21:04,VALID,917.147,VALID,0,VALID,96.9012,VALID,0,VALID,18.9229,VALID,120,VALID,1.09609,
2010-12-19, 00:22:04,VALID,917.139,VALID,0,VALID,96.886,VALID,0,VALID,18.9229,VALID,120,VALID,0.203516,
2010-12-19, 00:23:04,VALID,917.171,VALID,0,VALID,96.8326,VALID,0,VALID,18.9229,VALID,120,VALID,0.716016,
2010-12-19, 00:24:04,VALID,917.139,VALID,0,VALID,96.8098,VALID,0,VALID,18.9229,VALID,120,VALID,0.696094,
2010-12-19, 00:25:04,VALID,917.133,VALID,0,VALID,96.825,VALID,0,VALID,18.9229,VALID,120,VALID,0.551172,
2010-12-19, 00:26:04,VALID,917.118,VALID,0,VALID,96.7793,VALID,0,VALID,18.9034,VALID,120,VALID,0.698828,
2010-12-19, 00:27:04,VALID,917.115,VALID,0,VALID,96.7488,VALID,0,VALID,18.8839,VALID,120,VALID,0.524219,
2010-12-19, 00:28:04,VALID,917.096,VALID,0,VALID,96.7488,VALID,0,VALID,18.8644,VALID,120,VALID,0.548828,
2010-12-19, 00:29:04,VALID,917.093,VALID,0,VALID,96.7564,VALID,0,VALID,18.8644,VALID,120,VALID,0.434375,
2010-12-19, 00:30:04,VALID,917.078,VALID,0,VALID,96.7488,VALID,0,VALID,18.8254,VALID,120,VALID,0.529297,
2010-12-19, 00:31:04,VALID,917.075,VALID,0,VALID,96.764,VALID,0,VALID,18.8644,VALID,120,VALID,0.664844,
2010-12-19, 00:32:04,VALID,917.058,VALID,0,VALID,96.764,VALID,0,VALID,18.8449,VALID,120,VALID,0.955078,
2010-12-19, 00:33:04,VALID,917.056,VALID,0,VALID,96.764,VALID,0,VALID,18.8254,VALID,120,VALID,0.991797,
2010-12-19, 00:34:04,VALID,917.04,VALID,0,VALID,96.7564,VALID,0,VALID,18.8059,VALID,120,VALID,0.935547,
2010-12-19, 00:35:04,VALID,917.033,VALID,0,VALID,96.7945,VALID,0,VALID,18.8254,VALID,120,VALID,0.743359,
2010-12-19, 00:36:04,VALID,916.991,VALID,0,VALID,96.7793,VALID,0,VALID,18.8059,VALID,120,VALID,0.762109,
2010-12-19, 00:37:04,VALID,916.995,VALID,0,VALID,96.7411,VALID,0,VALID,18.7864,VALID,120,VALID,1.19922,
2010-12-19, 00:38:04,VALID,916.99,VALID,0,VALID,96.7716,VALID,0,VALID,18.8073,VALID,120,VALID,1.00781,
2010-12-19, 00:39:04,VALID,916.984,VALID,0,VALID,96.7793,VALID,0,VALID,18.7864,VALID,120,VALID,1.125,
2010-12-19, 00:40:04,VALID,916.995,VALID,0,VALID,96.7793,VALID,0,VALID,18.7669,VALID,120,VALID,0.946484,
2010-12-19, 00:41:04,VALID,916.98,VALID,0,VALID,96.764,VALID,0,VALID,18.7669,VALID,115,VALID,0.948047,
2010-12-19, 00:42:04,VALID,916.98,VALID,0,VALID,96.7564,VALID,0.107441,VALID,18.7669,VALID,123,VALID,1.38086,
2010-12-19, 00:43:04,VALID,916.988,VALID,0,VALID,96.7488,VALID,0,VALID,18.7669,VALID,124,VALID,1.18164,
2010-12-19, 00:44:04,VALID,916.952,VALID,0,VALID,96.703,VALID,0,VALID,18.7864,VALID,124,VALID,1.13008,
2010-12-19, 00:45:04,VALID,916.96,VALID,0,VALID,96.7259,VALID,0,VALID,18.7864,VALID,132,VALID,1.29336,
2010-12-19, 00:46:04,VALID,916.958,VALID,0,VALID,96.6573,VALID,0,VALID,18.7669,VALID,131,VALID,1.26836,
2010-12-19, 00:47:04,VALID,916.928,VALID,0,VALID,96.6268,VALID,0,VALID,18.7878,VALID,143,VALID,1.08789,
2010-12-19, 00:48:04,VALID,916.945,VALID,0,VALID,96.5658,VALID,0,VALID,18.7669,VALID,143,VALID,1.175,
2010-12-19, 00:49:04,VALID,916.931,VALID,0,VALID,96.5124,VALID,0,VALID,18.7864,VALID,127,VALID,1.10469,
2010-12-19, 00:50:04,VALID,916.91,VALID,0,VALID,96.4286,VALID,0,VALID,18.7474,VALID,125,VALID,1.17383,
2010-12-19, 00:51:04,VALID,916.905,VALID,0,VALID,96.3752,VALID,0,VALID,18.7669,VALID,150,VALID,0.774219,
2010-12-19, 00:52:04,VALID,916.865,VALID,0,VALID,96.3142,VALID,0,VALID,18.7878,VALID,150,VALID,0.627344,
2010-12-19, 00:53:04,VALID,916.86,VALID,0,VALID,96.238,VALID,0,VALID,18.7669,VALID,150,VALID,1.04844,
2010-12-19, 00:54:04,VALID,916.853,VALID,0,VALID,96.1618,VALID,0,VALID,18.7864,VALID,141,VALID,0.695703,
2010-12-19, 00:55:04,VALID,916.838,VALID,0,VALID,96.1008,VALID,0,VALID,18.7669,VALID,130,VALID,1.36367,
2010-12-19, 00:56:04,VALID,916.8,VALID,0,VALID,96.0627,VALID,0,VALID,18.7864,VALID,130,VALID,0.677344,
2010-12-19, 00:57:04,VALID,916.776,VALID,0,VALID,96.0017,VALID,0,VALID,18.8073,VALID,130,VALID,0.725,
2010-12-19, 00:58:04,VALID,916.769,VALID,0,VALID,95.9559,VALID,0,VALID,18.7669,VALID,131,VALID,0.855078,
2010-12-19, 00:59:04,VALID,916.713,VALID,0,VALID,95.9559,VALID,0,VALID,18.7878,VALID,131,VALID,0.378906,
2010-12-19, 01:00:04,VALID,916.724,VALID,0,VALID,95.8873,VALID,0,VALID,18.8268,VALID,131,VALID,0.503125,
2010-12-19, 01:01:04,VALID,916.737,VALID,0,VALID,95.8797,VALID,0,VALID,18.7864,VALID,132,VALID,0.271484,
2010-12-19, 01:02:04,VALID,916.713,VALID,0,VALID,95.7958,VALID,0,VALID,18.7669,VALID,131,VALID,0.591797,
2010-12-19, 01:03:04,VALID,916.709,VALID,0,VALID,95.7882,VALID,0,VALID,18.7864,VALID,131,VALID,0.390234,
2010-12-19, 01:04:04,VALID,916.705,VALID,0,VALID,95.834,VALID,0,VALID,18.7864,VALID,131,VALID,0.478906,
2010-12-19, 01:05:04,VALID,916.684,VALID,0,VALID,95.8568,VALID,0,VALID,18.7864,VALID,131,VALID,0.754687,
2010-12-19, 01:06:04,VALID,916.686,VALID,0,VALID,95.8645,VALID,0,VALID,18.7474,VALID,131,VALID,0.885938,
2010-12-19, 01:07:04,VALID,916.686,VALID,0,VALID,95.9331,VALID,0,VALID,18.7488,VALID,131,VALID,0.546484,
2010-12-19, 01:08:04,VALID,916.663,VALID,0,VALID,96.0627,VALID,0,VALID,18.7474,VALID,131,VALID,0.859375,
2010-12-19, 01:09:04,VALID,916.666,VALID,0,VALID,96.055,VALID,0,VALID,18.7293,VALID,131,VALID,0.866797,
2010-12-19, 01:10:04,VALID,916.683,VALID,0,VALID,96.0855,VALID,0,VALID,18.6694,VALID,131,VALID,0.865625,
2010-12-19, 01:11:04,VALID,916.667,VALID,0,VALID,96.0169,VALID,0,VALID,18.6499,VALID,131,VALID,1.01094,
2010-12-19, 01:12:04,VALID,916.653,VALID,0,VALID,96.0322,VALID,0,VALID,18.6513,VALID,131,VALID,1.11094,
2010-12-19, 01:13:04,VALID,916.664,VALID,0,VALID,96.1084,VALID,0,VALID,18.5914,VALID,131,VALID,0.585156,
2010-12-19, 01:14:04,VALID,916.653,VALID,0,VALID,96.116,VALID,0,VALID,18.5929,VALID,131,VALID,0.675391,
2010-12-19, 01:15:04,VALID,916.636,VALID,0,VALID,96.1618,VALID,0,VALID,18.5525,VALID,131,VALID,0.935156,
2010-12-19, 01:16:04,VALID,916.636,VALID,0,VALID,96.177,VALID,0,VALID,18.5539,VALID,131,VALID,0.795313,
2010-12-19, 01:17:04,VALID,916.635,VALID,0,VALID,96.2228,VALID,0,VALID,18.533,VALID,131,VALID,0.631641,
2010-12-19, 01:18:04,VALID,916.636,VALID,0,VALID,96.3219,VALID,0,VALID,18.533,VALID,131,VALID,0.917188,
2010-12-19, 01:19:04,VALID,916.623,VALID,0,VALID,96.3829,VALID,0,VALID,18.533,VALID,131,VALID,0.541406,
2010-12-19, 01:20:04,VALID,916.621,VALID,0,VALID,96.3981,VALID,0,VALID,18.5135,VALID,131,VALID,0.623438,
2010-12-19, 01:21:04,VALID,916.613,VALID,0,VALID,96.3981,VALID,0,VALID,18.494,VALID,131,VALID,0.6125,
2010-12-19, 01:22:04,VALID,916.62,VALID,0,VALID,96.3981,VALID,0,VALID,18.455,VALID,131,VALID,0.458984,
2010-12-19, 01:23:04,VALID,916.646,VALID,0,VALID,96.3905,VALID,0,VALID,18.4745,VALID,131,VALID,0.711328,
2010-12-19, 01:24:04,VALID,916.645,VALID,0,VALID,96.3829,VALID,0,VALID,18.4759,VALID,131,VALID,0.446484,
2010-12-19, 01:25:04,VALID,916.663,VALID,0,VALID,96.3752,VALID,0,VALID,18.494,VALID,131,VALID,0.591797,
2010-12-19, 01:26:04,VALID,916.662,VALID,0,VALID,96.3676,VALID,0,VALID,18.4745,VALID,131,VALID,0.603125,
2010-12-19, 01:27:04,VALID,916.683,VALID,0,VALID,96.36,VALID,0,VALID,18.5135,VALID,132,VALID,0.679297,
2010-12-19, 01:28:04,VALID,916.695,VALID,0,VALID,96.2761,VALID,0,VALID,18.455,VALID,131,VALID,0.788672,
2010-12-19, 01:29:04,VALID,916.682,VALID,0,VALID,96.2304,VALID,0,VALID,18.4355,VALID,131,VALID,0.749609,
2010-12-19, 01:30:04,VALID,916.699,VALID,0,VALID,96.2609,VALID,0,VALID,18.4745,VALID,131,VALID,0.470703,
2010-12-19, 01:31:04,VALID,916.702,VALID,0,VALID,96.1846,VALID,0,VALID,18.4745,VALID,131,VALID,0.487891,
2010-12-19, 01:32:04,VALID,916.704,VALID,0,VALID,96.1846,VALID,0,VALID,18.455,VALID,131,VALID,0.590625,
2010-12-19, 01:33:04,VALID,916.715,VALID,0,VALID,96.1084,VALID,0,VALID,18.4369,VALID,131,VALID,0.564062,
2010-12-19, 01:34:04,VALID,916.729,VALID,0,VALID,96.1008,VALID,0,VALID,18.3965,VALID,131,VALID,0.294531,
2010-12-19, 01:35:04,VALID,916.706,VALID,0,VALID,96.0855,VALID,0,VALID,18.3965,VALID,131,VALID,0.330469,
2010-12-19, 01:36:04,VALID,916.717,VALID,0,VALID,96.1236,VALID,0,VALID,18.377,VALID,131,VALID,0.214453,
2010-12-19, 01:37:04,VALID,916.693,VALID,0,VALID,96.1313,VALID,0,VALID,18.4174,VALID,131,VALID,0.340625,
2010-12-19, 01:38:04,VALID,916.678,VALID,0,VALID,96.1236,VALID,0,VALID,18.3979,VALID,132,VALID,0.401563,
2010-12-19, 01:39:04,VALID,916.681,VALID,0,VALID,96.1389,VALID,0,VALID,18.3979,VALID,131,VALID,0.448047,
2010-12-19, 01:40:04,VALID,916.648,VALID,0,VALID,96.1618,VALID,0,VALID,18.4174,VALID,131,VALID,0.464453,
2010-12-19, 01:41:04,VALID,916.65,VALID,0,VALID,96.1923,VALID,0,VALID,18.3784,VALID,131,VALID,0.373437,
2010-12-19, 01:42:04,VALID,916.666,VALID,0,VALID,96.238,VALID,0,VALID,18.377,VALID,131,VALID,0.442969,
2010-12-19, 01:43:04,VALID,916.666,VALID,0,VALID,96.238,VALID,0,VALID,18.3575,VALID,131,VALID,0.328906,
2010-12-19, 01:44:04,VALID,916.678,VALID,0,VALID,96.2609,VALID,0,VALID,18.377,VALID,132,VALID,0.4625,
2010-12-19, 01:45:04,VALID,916.651,VALID,0,VALID,96.2685,VALID,0,VALID,18.338,VALID,131,VALID,0.492969,
2010-12-19, 01:46:04,VALID,916.672,VALID,0,VALID,96.2837,VALID,0,VALID,18.3172,VALID,132,VALID,0.286719,
2010-12-19, 01:47:04,VALID,916.672,VALID,0,VALID,96.3219,VALID,0,VALID,18.338,VALID,131,VALID,0.394141,
2010-12-19, 01:48:04,VALID,916.676,VALID,0,VALID,96.3676,VALID,0,VALID,18.3394,VALID,131,VALID,0.697266,
2010-12-19, 01:49:04,VALID,916.691,VALID,0,VALID,96.3676,VALID,0,VALID,18.3185,VALID,131,VALID,0.786328,
2010-12-19, 01:50:04,VALID,916.693,VALID,0,VALID,96.3905,VALID,0,VALID,18.3394,VALID,132,VALID,0.697656,
2010-12-19, 01:51:04,VALID,916.684,VALID,0,VALID,96.4591,VALID,0,VALID,18.3394,VALID,131,VALID,0.727344,
2010-12-19, 01:52:04,VALID,916.714,VALID,0,VALID,96.4667,VALID,0,VALID,18.3394,VALID,132,VALID,0.517969,
2010-12-19, 01:53:04,VALID,916.703,VALID,0,VALID,96.4896,VALID,0,VALID,18.338,VALID,131,VALID,0.6375,
2010-12-19, 01:54:04,VALID,916.722,VALID,0,VALID,96.4515,VALID,0,VALID,18.338,VALID,132,VALID,0.796094,
2010-12-19, 01:55:04,VALID,916.708,VALID,0,VALID,96.4515,VALID,0,VALID,18.3004,VALID,131,VALID,0.822656,
2010-12-19, 01:56:04,VALID,916.714,VALID,0,VALID,96.4362,VALID,0,VALID,18.299,VALID,131,VALID,0.912891,
2010-12-19, 01:57:04,VALID,916.702,VALID,0,VALID,96.3981,VALID,0,VALID,18.3185,VALID,131,VALID,1.2,
2010-12-19, 01:58:04,VALID,916.683,VALID,0,VALID,96.3219,VALID,0,VALID,18.3589,VALID,131,VALID,0.910937,
2010-12-19, 01:59:04,VALID,916.675,VALID,0,VALID,96.2685,VALID,0,VALID,18.338,VALID,131,VALID,0.919531,
2010-12-19, 02:00:04,VALID,916.66,VALID,0,VALID,96.1313,VALID,0,VALID,18.3589,VALID,131,VALID,0.855078,
2010-12-19, 02:01:04,VALID,916.643,VALID,0,VALID,96.0322,VALID,0,VALID,18.3394,VALID,131,VALID,1.00898,
2010-12-19, 02:02:04,VALID,916.615,VALID,0,VALID,95.9102,VALID,0,VALID,18.4174,VALID,131,VALID,0.734766,
2010-12-19, 02:03:04,VALID,916.596,VALID,0,VALID,95.8416,VALID,0,VALID,18.377,VALID,131,VALID,0.740625,
2010-12-19, 02:04:04,VALID,916.574,VALID,0,VALID,95.8416,VALID,0,VALID,18.338,VALID,131,VALID,1.00742,
2010-12-19, 02:05:04,VALID,916.556,VALID,0,VALID,95.8797,VALID,0,VALID,18.3589,VALID,131,VALID,0.599609,
2010-12-19, 02:06:04,VALID,916.524,VALID,0,VALID,95.9102,VALID,0,VALID,18.3784,VALID,131,VALID,0.694531,
2010-12-19, 02:07:04,VALID,916.501,VALID,0,VALID,95.9407,VALID,0,VALID,18.3185,VALID,131,VALID,0.434375,
2010-12-19, 02:08:04,VALID,916.445,VALID,0,VALID,95.9941,VALID,0,VALID,18.3394,VALID,131,VALID,0.779688,
2010-12-19, 02:09:04,VALID,916.426,VALID,0,VALID,96.0169,VALID,0,VALID,18.3185,VALID,131,VALID,0.563672,
2010-12-19, 02:10:04,VALID,916.417,VALID,0,VALID,95.9864,VALID,0,VALID,18.3199,VALID,131,VALID,0.772656,
2010-12-19, 02:11:04,VALID,916.386,VALID,0,VALID,95.8873,VALID,0,VALID,18.2809,VALID,131,VALID,0.7625,
2010-12-19, 02:12:04,VALID,916.385,VALID,0,VALID,95.8263,VALID,0,VALID,18.3394,VALID,131,VALID,0.655078,
2010-12-19, 02:13:04,VALID,916.369,VALID,0,VALID,95.6967,VALID,0,VALID,18.2809,VALID,131,VALID,0.598437,
2010-12-19, 02:14:04,VALID,916.363,VALID,0,VALID,95.6129,VALID,0,VALID,18.3185,VALID,131,VALID,0.569531,
2010-12-19, 02:15:04,VALID,916.306,VALID,0,VALID,95.5443,VALID,0,VALID,18.3394,VALID,131,VALID,0.635938,
2010-12-19, 02:16:04,VALID,916.312,VALID,0,VALID,95.5595,VALID,0,VALID,18.3784,VALID,131,VALID,0.686719,
2010-12-19, 02:17:04,VALID,916.289,VALID,0,VALID,95.5748,VALID,0,VALID,18.3185,VALID,131,VALID,0.805469,
2010-12-19, 02:18:04,VALID,916.267,VALID,0,VALID,95.6586,VALID,0,VALID,18.2601,VALID,131,VALID,0.635156,
2010-12-19, 02:19:04,VALID,916.277,VALID,0,VALID,95.712,VALID,0,VALID,18.2601,VALID,131,VALID,0.799609,
2010-12-19, 02:20:04,VALID,916.265,VALID,0,VALID,95.7577,VALID,0,VALID,18.2796,VALID,131,VALID,0.727344,
2010-12-19, 02:21:04,VALID,916.231,VALID,0,VALID,95.7577,VALID,0,VALID,18.2016,VALID,131,VALID,0.891797,
2010-12-19, 02:22:04,VALID,916.245,VALID,0,VALID,95.773,VALID,0,VALID,18.2016,VALID,131,VALID,1.17617,
2010-12-19, 02:23:04,VALID,916.221,VALID,0,VALID,95.7349,VALID,0,VALID,18.2615,VALID,131,VALID,1.35664,
2010-12-19, 02:24:04,VALID,916.212,VALID,0,VALID,95.6662,VALID,0,VALID,18.242,VALID,131,VALID,1.08828,
2010-12-19, 02:25:04,VALID,916.185,VALID,0,VALID,95.5214,VALID,0,VALID,18.242,VALID,132,VALID,1.19766,
2010-12-19, 02:26:04,VALID,916.207,VALID,0,VALID,95.3537,VALID,0,VALID,18.2615,VALID,131,VALID,1.3082,
2010-12-19, 02:27:04,VALID,916.207,VALID,0,VALID,94.9115,VALID,0,VALID,18.3394,VALID,131,VALID,1.1375,
2010-12-19, 02:28:04,VALID,916.172,VALID,0,VALID,94.4008,VALID,0,VALID,18.3784,VALID,131,VALID,0.993359,
2010-12-19, 02:29:04,VALID,916.166,VALID,0,VALID,93.9738,VALID,0,VALID,18.4564,VALID,131,VALID,1.34687,
2010-12-19, 02:30:04,VALID,916.149,VALID,0,VALID,93.6079,VALID,0,VALID,18.4759,VALID,131,VALID,1.07617,
2010-12-19, 02:31:04,VALID,916.13,VALID,0,VALID,93.4707,VALID,0,VALID,18.4954,VALID,131,VALID,0.767187,
2010-12-19, 02:32:04,VALID,916.1,VALID,0,VALID,93.4859,VALID,0,VALID,18.5149,VALID,131,VALID,0.795703,
2010-12-19, 02:33:04,VALID,916.107,VALID,0,VALID,93.6384,VALID,0,VALID,18.4759,VALID,131,VALID,0.941406,
2010-12-19, 02:34:04,VALID,916.067,VALID,0,VALID,93.9129,VALID,0,VALID,18.4564,VALID,131,VALID,0.942187,
2010-12-19, 02:35:04,VALID,916.088,VALID,0,VALID,94.1187,VALID,0,VALID,18.4174,VALID,131,VALID,0.928906,
2010-12-19, 02:36:04,VALID,916.054,VALID,0,VALID,94.2102,VALID,0,VALID,18.3979,VALID,132,VALID,0.917188,
2010-12-19, 02:37:04,VALID,916.072,VALID,0,VALID,94.2712,VALID,0,VALID,18.4369,VALID,131,VALID,0.73125,
2010-12-19, 02:38:04,VALID,916.092,VALID,0,VALID,94.416,VALID,0,VALID,18.4174,VALID,132,VALID,0.925391,
2010-12-19, 02:39:04,VALID,916.118,VALID,0,VALID,94.4999,VALID,0,VALID,18.416,VALID,132,VALID,1.11367,
2010-12-19, 02:40:04,VALID,916.13,VALID,0,VALID,94.6752,VALID,0,VALID,18.416,VALID,132,VALID,0.561719,
2010-12-19, 02:41:04,VALID,916.119,VALID,0,VALID,95.003,VALID,0,VALID,18.4369,VALID,143,VALID,0.819531,
2010-12-19, 02:42:04,VALID,916.114,VALID,0,VALID,95.2698,VALID,0,VALID,18.3979,VALID,144,VALID,0.790625,
2010-12-19, 02:43:04,VALID,916.121,VALID,0,VALID,95.5062,VALID,0,VALID,18.3784,VALID,143,VALID,0.555859,
2010-12-19, 02:44:04,VALID,916.116,VALID,0,VALID,95.6662,VALID,0,VALID,18.3185,VALID,143,VALID,1.34336,
2010-12-19, 02:45:04,VALID,916.14,VALID,0,VALID,95.8492,VALID,0,VALID,18.299,VALID,121,VALID,1.14023,
2010-12-19, 02:46:04,VALID,916.112,VALID,0,VALID,96.0169,VALID,0,VALID,18.3004,VALID,121,VALID,0.715625,
2010-12-19, 02:47:04,VALID,916.122,VALID,0,VALID,96.1541,VALID,0,VALID,18.2809,VALID,121,VALID,0.889453,
2010-12-19, 02:48:04,VALID,916.122,VALID,0,VALID,96.2304,VALID,0,VALID,18.2601,VALID,121,VALID,0.994922,
2010-12-19, 02:49:04,VALID,916.147,VALID,0,VALID,96.3066,VALID,0,VALID,18.2211,VALID,120,VALID,1.27578,
2010-12-19, 02:50:04,VALID,916.149,VALID,0,VALID,96.3066,VALID,0,VALID,18.1821,VALID,121,VALID,1.00195,
2010-12-19, 02:51:04,VALID,916.172,VALID,0,VALID,96.3447,VALID,0,VALID,18.1835,VALID,121,VALID,0.782031,
2010-12-19, 02:52:04,VALID,916.187,VALID,0,VALID,96.3142,VALID,0,VALID,18.203,VALID,121,VALID,0.898438,
2010-12-19, 02:53:04,VALID,916.189,VALID,0,VALID,96.3219,VALID,0,VALID,18.1821,VALID,121,VALID,0.820703,
2010-12-19, 02:54:04,VALID,916.183,VALID,0,VALID,96.2761,VALID,0,VALID,18.203,VALID,121,VALID,0.754297,
2010-12-19, 02:55:04,VALID,916.214,VALID,0,VALID,96.2151,VALID,0,VALID,18.1835,VALID,121,VALID,1.31445,
2010-12-19, 02:56:04,VALID,916.204,VALID,0,VALID,96.1618,VALID,0,VALID,18.203,VALID,122,VALID,0.857422,
2010-12-19, 02:57:04,VALID,916.182,VALID,0,VALID,96.1084,VALID,0,VALID,18.2225,VALID,122,VALID,0.974609,
2010-12-19, 02:58:04,VALID,916.217,VALID,0,VALID,96.0627,VALID,0,VALID,18.203,VALID,122,VALID,1.08164,
2010-12-19, 02:59:04,VALID,916.191,VALID,0,VALID,96.0322,VALID,0,VALID,18.1835,VALID,123,VALID,0.975781,
2010-12-19, 03:00:04,VALID,916.19,VALID,0,VALID,95.9864,VALID,0,VALID,18.1835,VALID,123,VALID,0.892969,
2010-12-19, 03:01:04,VALID,916.198,VALID,0,VALID,95.9407,VALID,0,VALID,18.203,VALID,123,VALID,0.694531,
2010-12-19, 03:02:04,VALID,916.167,VALID,0,VALID,95.9559,VALID,0,VALID,18.203,VALID,123,VALID,0.664844,
2010-12-19, 03:03:04,VALID,916.185,VALID,0,VALID,95.9331,VALID,0,VALID,18.1835,VALID,123,VALID,0.569141,
2010-12-19, 03:04:04,VALID,916.156,VALID,0,VALID,95.895,VALID,0,VALID,18.1431,VALID,123,VALID,0.723437,
2010-12-19, 03:05:04,VALID,916.117,VALID,0,VALID,95.8416,VALID,0,VALID,18.164,VALID,123,VALID,0.684375,
2010-12-19, 03:06:04,VALID,916.132,VALID,0,VALID,95.8263,VALID,0,VALID,18.164,VALID,123,VALID,0.722266,
2010-12-19, 03:07:04,VALID,916.148,VALID,0,VALID,95.8111,VALID,0,VALID,18.1445,VALID,122,VALID,0.458203,
2010-12-19, 03:08:04,VALID,916.147,VALID,0,VALID,95.773,VALID,0,VALID,18.125,VALID,123,VALID,0.751953,
2010-12-19, 03:09:04,VALID,916.146,VALID,0,VALID,95.8263,VALID,0,VALID,18.125,VALID,123,VALID,0.567969,
2010-12-19, 03:10:04,VALID,916.152,VALID,0,VALID,95.8263,VALID,0,VALID,18.1055,VALID,123,VALID,0.578125,
2010-12-19, 03:11:04,VALID,916.15,VALID,0,VALID,95.9178,VALID,0,VALID,18.1055,VALID,123,VALID,0.454688,
2010-12-19, 03:12:04,VALID,916.177,VALID,0,VALID,95.8797,VALID,0,VALID,18.1055,VALID,123,VALID,0.395312,
2010-12-19, 03:13:04,VALID,916.128,VALID,0,VALID,95.9636,VALID,0,VALID,18.1055,VALID,123,VALID,0.233594,
2010-12-19, 03:14:04,VALID,916.093,VALID,0,VALID,96.0017,VALID,0,VALID,18.1055,VALID,123,VALID,0.426562,
2010-12-19, 03:15:04,VALID,916.108,VALID,0,VALID,95.9941,VALID,0,VALID,18.0665,VALID,123,VALID,0.363281,
2010-12-19, 03:16:04,VALID,916.093,VALID,0,VALID,96.0779,VALID,0,VALID,18.086,VALID,123,VALID,0.366016,
2010-12-19, 03:17:04,VALID,916.052,VALID,0,VALID,96.1008,VALID,0,VALID,18.0665,VALID,123,VALID,0.398047,
2010-12-19, 03:18:04,VALID,916.043,VALID,0,VALID,96.116,VALID,0,VALID,18.0665,VALID,123,VALID,0.672266,
2010-12-19, 03:19:04,VALID,916.046,VALID,0,VALID,96.1618,VALID,0,VALID,18.0665,VALID,123,VALID,0.642578,
2010-12-19, 03:20:04,VALID,916.036,VALID,0,VALID,96.177,VALID,0,VALID,18.0665,VALID,123,VALID,0.644922,
2010-12-19, 03:21:04,VALID,916.02,VALID,0,VALID,96.2533,VALID,0,VALID,18.0665,VALID,123,VALID,1.00117,
2010-12-19, 03:22:04,VALID,915.991,VALID,0,VALID,96.36,VALID,0,VALID,18.1055,VALID,123,VALID,0.821875,
2010-12-19, 03:23:04,VALID,915.991,VALID,0,VALID,96.3981,VALID,0,VALID,18.086,VALID,123,VALID,0.757031,
2010-12-19, 03:24:04,VALID,916.008,VALID,0,VALID,96.4743,VALID,0,VALID,18.0846,VALID,123,VALID,0.705859,
2010-12-19, 03:25:04,VALID,915.987,VALID,0,VALID,96.5124,VALID,0,VALID,18.0846,VALID,123,VALID,0.85,
2010-12-19, 03:26:04,VALID,915.96,VALID,0,VALID,96.5811,VALID,0,VALID,18.1055,VALID,123,VALID,0.739062,
2010-12-19, 03:27:04,VALID,915.976,VALID,0,VALID,96.6344,VALID,0,VALID,18.0846,VALID,123,VALID,0.297266,
2010-12-19, 03:28:04,VALID,915.99,VALID,0,VALID,96.6192,VALID,0,VALID,18.1055,VALID,123,VALID,0.348437,
2010-12-19, 03:29:04,VALID,915.964,VALID,0,VALID,96.6573,VALID,0,VALID,18.086,VALID,123,VALID,0.255469,
2010-12-19, 03:30:04,VALID,915.978,VALID,0,VALID,96.703,VALID,0,VALID,18.0651,VALID,123,VALID,0.309375,
2010-12-19, 03:31:04,VALID,915.958,VALID,0,VALID,96.6878,VALID,0,VALID,18.047,VALID,123,VALID,0.546484,
2010-12-19, 03:32:04,VALID,915.939,VALID,0,VALID,96.6954,VALID,0,VALID,18.047,VALID,123,VALID,0.714063,
2010-12-19, 03:33:04,VALID,915.939,VALID,0,VALID,96.703,VALID,0,VALID,18.0262,VALID,123,VALID,0.723828,
2010-12-19, 03:34:04,VALID,915.933,VALID,0,VALID,96.7335,VALID,0,VALID,18.0262,VALID,123,VALID,0.651563,
2010-12-19, 03:35:04,VALID,915.938,VALID,0,VALID,96.703,VALID,0,VALID,18.047,VALID,123,VALID,0.614844,
2010-12-19, 03:36:04,VALID,915.914,VALID,0,VALID,96.7411,VALID,0,VALID,18.0457,VALID,123,VALID,0.174219,
2010-12-19, 03:37:04,VALID,915.9,VALID,0,VALID,96.7488,VALID,0,VALID,18.0457,VALID,123,VALID,0.276953,
2010-12-19, 03:38:04,VALID,915.893,VALID,0,VALID,96.6344,VALID,0,VALID,18.0651,VALID,123,VALID,0.564453,
2010-12-19, 03:39:04,VALID,915.875,VALID,0,VALID,96.6192,VALID,0,VALID,18.0665,VALID,123,VALID,0.5875,
2010-12-19, 03:40:04,VALID,915.863,VALID,0,VALID,96.5353,VALID,0,VALID,18.0262,VALID,123,VALID,0.612891,
2010-12-19, 03:41:04,VALID,915.885,VALID,0,VALID,96.5124,VALID,0,VALID,18.0262,VALID,123,VALID,0.497656,
2010-12-19, 03:42:04,VALID,915.896,VALID,0,VALID,96.4667,VALID,0,VALID,18.0275,VALID,123,VALID,0.531641,
2010-12-19, 03:43:04,VALID,915.91,VALID,0,VALID,96.4057,VALID,0,VALID,18.0262,VALID,123,VALID,0.449219,
2010-12-19, 03:44:04,VALID,915.918,VALID,0,VALID,96.3524,VALID,0,VALID,18.0665,VALID,123,VALID,0.422656,
2010-12-19, 03:45:04,VALID,915.939,VALID,0,VALID,96.2533,VALID,0,VALID,18.0665,VALID,123,VALID,0.51875,